Regional Weather Roundup
Issued by NWS

Home | Current Version | Previous Version | Text Only | Print | Product List | Glossary On
Versions: 1 2 3 4 5 6 7 8 9 10 11 12 13 14 15 16 17 18 19 20 21 22 23 24 25 26 27 28 29 30 31 32 33 34 35 36 37 38 39 40 41 42 43 44 45 46 47 48 49 50
000
ASUS43 KMPX 031910
RWRMN
WEATHER ROUNDUP FOR MINNESOTA
NATIONAL WEATHER SERVICE TWIN CITIES/CHANHASSEN MN
200 PM CDT WED JUN 03 2020


NOTE: "FAIR" INDICATES FEW OR NO CLOUDS BELOW 12,000 FEET WITH NO
SIGNIFICANT WEATHER AND/OR OBSTRUCTIONS TO VISIBILITY. N/A MEANS
CURRENT SKY AND/OR WEATHER CONDITIONS ARE NOT AVAILABLE.

MNZ060>063-068>070-032000-
   Twin Cities Metro

CITY           SKY/WX    TMP DP  RH WIND       PRES   REMARKS
TWIN CITIES    FAIR      81  51  35 N5        29.83F
ST PAUL        FAIR      82  53  36 N7        29.83F
CRYSTAL        FAIR      81  48  31 VRB3G17   29.82F
BLAINE         SUNNY     81  48  32 NW8       29.83F
EDEN PRAIRIE   FAIR      82  53  36 N9        29.83F
SOUTH ST PAUL  FAIR      80  49  33 N7        29.83F
LAKE ELMO      FAIR      79  50  36 N7        29.84F
$$
MNZ001>005-007-008-013>017-022>024-027-028-032000-
   Northwest Minnesota

CITY           SKY/WX    TMP DP  RH WIND       PRES   REMARKS
BEMIDJI        FAIR      74  38  26 N12       29.88S
HALLOCK        FAIR      79  37  22 SW14G20   29.80F
ROSEAU         FAIR      73  46  38 CALM      29.85S
WARROAD        FAIR      70  48  46 E9        29.86F
THIEF RVR FALL FAIR      76  40  27 CALM      29.87F
CROOKSTON      FAIR      79  39  24 SW3       29.84S
FOSSTON        FAIR      75  36  23 NE5       29.87F
DETROIT LAKES  FAIR      77  34  20 E3        29.89F
MOORHEAD       FAIR      81  27  13 W5        29.85F
PARK RAPIDS    FAIR      76  36  23 CALM      29.87F
MAHNOMEN       FAIR      76  40  27 N5        29.86F
$$
MNZ006-009>011-018-025>026-032000-
   North Central Minnesota

CITY           SKY/WX    TMP DP  RH WIND       PRES   REMARKS
BAUDETTE       FAIR      71  41  33 MISG      29.87F
FLAG ISLAND      N/A     68  52  56 S6        29.84F
INTL FALLS     FAIR      73  41  31 VRB7      29.85F
BIG FORK       FAIR      73  37  27 W6        29.91F
LONGVILLE      FAIR      73  43  33 NW6       29.88S
GRAND RAPIDS     N/A     72  41  32 VRB5G17   29.88F
CRANE LAKE     FAIR      70  45  40 N6        29.87S
ORR            FAIR      72  37  28 NW6       29.83F
COOK           FAIR      72  37  28 NW12G18   29.85S
WALKER         FAIR      74  38  27 N10G16    29.88S
$$
MNZ012-019>021-037-032000-
   Northeast Minnesota

CITY           SKY/WX    TMP DP  RH WIND       PRES   REMARKS
DULUTH         FAIR      76  41  28 N9G20     29.82F
ELY            FAIR      70  39  32 NW8G18    29.83F
HIBBING        FAIR      73  41  31 N10G22    29.84F
EVELETH        FAIR      73  42  33 NW9G21    29.85F
DULUTH HARBOR  FAIR      75  39  27 N7        29.81F
TWO HARBORS    FAIR      75  36  23 NW6       29.81R
SILVER BAY     FAIR      75  39  27 NW5       29.79S
GRAND MARAIS     N/A     80  47  31 MISG      29.75F
G MARAIS ARPRT FAIR      72  39  30 NW5       29.81R
$$
MNZ029>031-032-039>041-046>048-054>057-064-032000-
   West Central Minnesota

CITY           SKY/WX    TMP DP  RH WIND       PRES   REMARKS
FERGUS FALLS   FAIR      77  43  29 CALM      29.83F
WHEATON        FAIR      81  37  21 CALM      29.87F
MORRIS         FAIR      81  30  16 NE3       29.86F
ALEXANDRIA     FAIR      76  42  29 VRB3      29.89F
ELBOW LAKE     FAIR      79  50  36 SE5       29.88S
WADENA         FAIR      75  43  31 NW3       29.87F
GLENWOOD       FAIR      79  45  29 CALM      29.89F
APPLETON       FAIR      81  46  30 CALM      29.85F
BENSON         FAIR      81  48  32 W3        29.86F
ORTONVILLE     FAIR      84  43  23 W3        29.86F
MADISON        FAIR      84  37  18 W3        29.86F
WILLMAR          N/A     82  39  21 N7        29.89F
$$
MNZ033>034-036-042>043-049>051-058-059-032000-
   Central Minnesota

CITY           SKY/WX    TMP DP  RH WIND       PRES   REMARKS
ST CLOUD       FAIR      80  44  27 VRB7      29.85F
SAUK CENTRE    FAIR      77  44  30 N6        29.88F
PAYNESVILLE    FAIR      79  46  31 N5        29.88S
AITKIN         FAIR      73  41  31 NW7       29.85S
PINE RIVER     FAIR      72  43  35 W7        29.91S
BRAINERD       FAIR      80  39  23 N10       29.87F
LONG PRAIRIE   FAIR      77  41  27 CALM      29.88F
LITTLE FALLS   FAIR      77  41  27 NW9       29.86F
CAMP RIPLEY    FAIR      81  40  23 N12G21    29.86F
LITCHFIELD     FAIR      81  46  30 W7        29.86F
BUFFALO        FAIR      79  45  30 MISG      29.86F
MAPLE LAKE       N/A     80  50  35 N7        29.87S
HUTCHINSON     FAIR      81  48  31 N8        29.86F
$$
MNZ037-044-045-052-053-032000-
   East Central Minnesota

CITY           SKY/WX    TMP DP  RH WIND       PRES   REMARKS
PRINCETON      FAIR      81  43  26 W14       29.85S
MORA           FAIR      75  39  27 N9G18     29.86F
CAMBRIDGE      FAIR      81  55  41 NW9       29.84F
RUSH CITY      FAIR      77  41  27 NW14      29.84S
MOOSE LAKE     FAIR      77  45  31 NW7       29.82F
HINCKLEY       FAIR      77  43  29 NW8       29.83F
CLOQUET        FAIR      75  37  25 NW12G17   29.83F
MCGREGOR       FAIR      75  41  29 NW5G18    29.85F
$$
MNZ071>073-080-081-089-090-097-098-032000-
   Southwest Minnesota

CITY           SKY/WX    TMP DP  RH WIND       PRES   REMARKS
MONTEVIDEO     FAIR      82  36  18 N7        29.86F
GRANITE FALLS  FAIR      84  43  23 N6        29.87F
CANBY          FAIR      85  36  17 NE7       29.87F
MARSHALL       FAIR      83  44  25 NW10      29.86F
REDWOOD FALLS  FAIR      85  42  22 NW8       29.84F
OLIVIA         FAIR      82  43  24 VRB6      29.85F
PIPESTONE        N/A     84  46  26 N6        29.89S
WINDOM           N/A     82  39  21 NW10G16   29.86F
WORTHINGTON    FAIR      83  43  24 VRB6      29.88F
JACKSON        FAIR      84  39  20 NW10      29.88F
TRACY          FAIR      85  43  22 N9G16     29.87S
SLAYTON        FAIR      82  42  25 N7G17     29.89S
$$
MNZ065>067-074>077-082>085-091>093-032000-
   South Central Minnesota

CITY           SKY/WX    TMP DP  RH WIND       PRES   REMARKS
MANKATO        FAIR      82  52  35 VRB3      29.85S
ST JAMES         N/A     82  46  28 N8        29.84F
FAIRMONT       FAIR      84  45  25 NW8G18    29.86S
GLENCOE        FAIR      80  28  15 W8G20     29.84F
FARIBAULT      FAIR      82  55  39 NW7       29.85S
OWATONNA       FAIR      82  54  36 W9G16     29.84S
WASECA         FAIR     N/A N/A N/A N12       29.85F
ALBERT LEA     FAIR      81  54  39 W3        29.86S
$$
MNZ078>079-086>088-094>096-032000-
   Southeast Minnesota

CITY           SKY/WX    TMP DP  RH WIND       PRES   REMARKS
ROCHESTER      FAIR      81  60  48 SW12G20   29.85F
RED WING       FAIR      81  55  41 N5        29.81F
STANTON        FAIR      81  57  43 NE8       29.82F
DODGE CENTER   FAIR      82  46  28 SW5       29.84F
WINONA         FAIR      82  63  51 SW7       29.81F
AUSTIN         FAIR      84  57  39 CALM      29.86F
PRESTON        FAIR      81  56  42 W9        29.86F
$$
ABBREVIATIONS USED IN REMARKS
   TC - TEMPERATURES IN CELSIUS
  WCI - WIND CHILL INDEX
   HX - HEAT INDEX
  VSB - VISIBILITY
$$



USA.gov is the U.S. government's official web portal to all federal, state and local government web resources and services.